Location: Killam
(52.7910°N, 111.8608°W)
Time: 19:44:53
(UTC+00:00)

Transit 2A - Visible Passes

Search period start: 15 February 2026 00:00
Search period end: 25 February 2026 00:00
Orbit: 589 x 955 km, 66.7° (Epoch: 15 February)

Date Brightness Start Highest point End Pass type
(mag) Time Alt. Az. Time Alt. Az. Time Alt. Az.
15 Feb 7.9 01:50:15 10° NW 01:55:11 23° N 01:59:19 12° NE visible
15 Feb 7.1 03:34:06 10° NW 03:39:40 39° NNE 03:39:40 39° NNE visible
15 Feb 8.2 05:17:24 10° NW 05:20:00 26° NW 05:20:00 26° NW visible
16 Feb 7.9 01:13:31 10° NW 01:18:23 22° N 01:23:07 10° NE visible
16 Feb 7.2 02:57:41 10° NW 03:03:19 33° NNE 03:04:26 31° NE visible
16 Feb 7.5 04:40:59 10° NW 04:44:47 39° NW 04:44:47 39° NW visible
16 Feb 9.1 06:25:05 10° WNW 06:25:08 10° WNW 06:25:08 10° WNW visible
17 Feb 7.5 02:21:13 10° NW 02:26:38 29° NNE 02:29:15 21° ENE visible
17 Feb 6.7 04:04:34 10° NW 04:09:35 56° NNW 04:09:35 56° NNW visible
17 Feb 8.7 05:48:18 10° NW 05:49:56 17° WNW 05:49:56 17° WNW visible
18 Feb 7.6 01:44:42 10° NW 01:49:54 26° NNE 01:54:05 13° ENE visible
18 Feb 6.4 03:28:11 10° NW 03:34:18 56° NE 03:34:26 56° NE visible
18 Feb 8.1 05:11:40 10° NW 05:14:47 27° WNW 05:14:47 27° WNW visible
19 Feb 6.8 02:51:48 10° NW 02:57:45 45° NE 02:59:19 37° ENE visible
19 Feb 7.2 04:35:08 10° NW 04:39:40 44° WNW 04:39:40 44° WNW visible
20 Feb 7.0 02:15:24 10° NW 02:21:09 37° NNE 02:24:14 22° E visible
20 Feb 6.3 03:58:41 10° NW 04:04:35 73° WSW 04:04:35 73° WSW visible
20 Feb 8.7 05:43:15 10° WNW 05:44:56 14° W 05:44:56 14° W visible
21 Feb 7.3 01:38:57 10° NW 01:44:29 32° NNE 01:49:12 12° E visible
21 Feb 6.1 03:22:15 10° NW 03:28:27 85° NE 03:29:34 60° SE visible
21 Feb 8.2 05:06:14 10° WNW 05:09:56 23° W 05:09:56 23° W visible
22 Feb 6.3 02:45:52 10° NW 02:52:01 66° NE 02:54:36 33° ESE visible
22 Feb 7.5 04:29:30 10° NW 04:34:45 32° WSW 04:34:58 32° WSW visible
23 Feb 6.5 02:09:28 10° NW 02:15:30 52° NE 02:19:43 18° ESE visible
23 Feb 7.1 03:52:55 10° NW 03:58:36 44° WSW 04:00:05 37° SSW visible
24 Feb 6.8 01:33:05 10° NW 01:38:57 42° NE 01:44:22 10° ESE visible
24 Feb 6.6 03:16:24 10° NW 03:22:22 61° WSW 03:25:17 28° S visible
24 Feb 8.7 05:01:46 10° WNW 05:04:09 13° W 05:05:40 11° WSW visible
